Regional Weather Roundup
Issued by NWS

Home | Current Version | Previous Version | Graphics & Text | Print | Product List | Glossary Off
Versions: 1 2 3 4 5 6 7 8 9 10 11 12 13 14 15 16 17 18 19 20 21 22 23 24 25 26 27 28 29 30 31 32 33 34 35 36 37 38 39 40 41 42 43 44 45 46 47 48 49 50

000
ASUS43 KTOP 182308
RWRKS

WEATHER ROUNDUP FOR KANSAS
NATIONAL WEATHER SERVICE GOODLAND KS
600 PM CDT FRI AUG 18 2017

NOTE:  "FAIR" INDICATES FEW OR NO CLOUDS BELOW 12,000 FEET WITH NO
SIGNIFICANT WEATHER AND/OR OBSTRUCTIONS TO VISIBILITY.

KSZ001>006-013>018-027>032-041>047-190000-
NORTHWEST KANSAS

CITY           SKY/WX    TMP DP  RH WIND       PRES   REMARKS
GOODLAND       SUNNY     87  50  27 VRB3      30.07S
HAYS           SUNNY     90  66  45 N13       29.95S
HILL CITY      SUNNY     89  56  32 NE7       29.99S
RUSSELL        SUNNY     93  61  34 N6        29.93S
$$

KSZ061>065-074>080-084>089-190000-
SOUTHWEST KANSAS

CITY           SKY/WX    TMP DP  RH WIND       PRES   REMARKS
DODGE CITY     SUNNY     92  57  30 CALM      29.99S
GARDEN CITY    SUNNY     90  61  37 VRB5      30.00S
GREAT BEND     SUNNY     91  66  43 S3        29.94F
LIBERAL        SUNNY     90  65  43 VRB5      30.01F
PRATT          SUNNY     94  56  27 W5        29.94F
$$

KSZ066>073-081>083-090>101-190000-
SOUTHEAST KANSAS

CITY           SKY/WX    TMP DP  RH WIND       PRES   REMARKS
CHANUTE        SUNNY     89  69  51 W7        29.93S
COFFEYVILLE    SUNNY     90  70  51 W9        29.89F HX  95
HUTCHINSON     SUNNY     91  67  44 E7        29.92F
MEDICINE LODGE   N/A     91  66  43 SE10G20   29.92S
NEWTON         SUNNY     89  68  49 SW3       29.95F
PARSONS        SUNNY     87  69  54 SW7       29.93F
WICHITA INTL   MOSUNNY   91  69  48 S12       29.92F HX  96
WICHITA JABRA  MOSUNNY   89  68  49 S6        29.93F
WICHITA MCCONL SUNNY     90  67  47 S9        29.93F
WINFIELD       SUNNY     87  67  51 S7        29.95S
$$

KSZ007>012-019>026-033>040-048>060-102>105-190000-
NORTHEAST KANSAS

CITY           SKY/WX    TMP DP  RH WIND       PRES   REMARKS
CONCORDIA      SUNNY     87  68  52 NW6       29.93S
EMPORIA        SUNNY     87  66  49 VRB5      29.92F
LAWRENCE       SUNNY     89  69  51 W7        29.88F
MANHATTAN      SUNNY     88  68  51 NE3       29.90F
MARYSVILLE     PTSUNNY   86  66  51 N3        29.91S
OLATHE IND     SUNNY     87  66  49 SW8       29.91F
OLATHE EXE     SUNNY     86  68  54 SW7       29.91F
SALINA         SUNNY     94  63  35 NW13      29.91F HX  95
TOPEKA BILLARD SUNNY     90  67  46 W9        29.89F
TOPEKA FORBES  SUNNY     90  68  48 W8        29.91S
$$



USA.gov is the U.S. government's official web portal to all federal, state and local government web resources and services.